[[{"header":{"parameterUnit":"m.s-1","parameterCategory":1,"la1":30.2991,"la2":30.254,"lo1":-89.0895,"lo2":-89.0444,"dy":0.0017,"dx":0.0017,"nx":28,"ny":28,"refTime":"2025-01-22T03:00:00:Z","depth":0,"parameterNumber":2,"parameterNumberName":"U-component_of_WINDS"},"data":[0,0,0,0,0,0,0,0,0,0,0,0,0,0,0,0,0,0,0,0,0,0,0,0,0,0,0,0,0,0,0,0,0,0,0,0,0,0,0,0,0,0,0,0,0,0,0,0,0,0,0,0,0,0,0,0,0,0,1.1097,1.1098,0,1.1156,1.1157,1.1158,1.1179,1.1179,1.1178,1.1178,1.1239,1.1241,1.1243,0,0,0,0,0,0,0,0,0,0,0,0,0,1.1004,1.1006,1.1097,1.1098,1.1099,1.1156,1.1157,1.1158,1.1179,1.1179,1.1178,1.1178,1.1239,1.1241,1.1243,0,0,0,0,0,0,0,0,0,0,0,0,0,1.1052,1.1006,1.1097,1.1116,1.1118,1.1156,1.1157,1.1158,1.1179,1.1179,1.1178,1.1178,1.1238,1.1241,1.1243,1.1267,0,0,1.1252,1.1253,0,0,0,0,0,0,0,0,1.1049,1.1055,1.1112,1.1115,1.1117,1.116,1.1147,1.1195,1.1179,1.1156,1.1178,1.1178,1.1213,1.1218,1.123,1.127,1.1272,1.1252,1.1254,1.1255,1.1256,0,0,0,0,0,0,0,1.1046,1.1053,1.1121,1.1113,1.1116,1.1122,1.1129,1.1156,1.1186,1.1158,1.116,1.1166,1.1214,1.1227,1.1231,1.1273,1.1252,1.1254,1.1256,1.1257,1.1337,1.1338,0,0,0,0,0,0,1.1039,1.105,1.1119,1.1122,1.1082,1.1124,1.1131,1.1147,1.1185,1.1191,1.1166,1.1167,1.1223,1.1228,1.1234,1.1265,1.1255,1.1257,1.1259,1.1337,1.1337,1.1338,0,0,0,0,0,0,1.1037,1.1045,1.1116,1.1087,1.1096,1.1126,1.1143,1.1148,1.116,1.1192,1.1197,1.1174,1.1223,1.123,1.1259,1.1267,1.1259,1.1261,1.1336,1.1337,1.1337,1.1326,0,0,0,0,0,0,1.1034,1.1044,1.1053,1.1087,1.1098,1.114,1.1143,1.1149,1.1165,1.1166,1.12,1.1205,1.1223,1.1255,1.1261,1.1271,1.1263,1.1335,1.1336,1.1337,1.1326,1.1326,1.1326,0,0,0,0,0,1.1031,1.1047,1.1053,1.1061,1.1109,1.114,1.1147,1.1166,1.1166,1.1175,1.1196,1.1204,1.1265,1.1257,1.1265,1.1275,1.1335,1.1336,1.1337,1.1325,1.1326,1.1326,0,0,0,0,0,0,1.1013,1.1052,1.1059,1.1086,1.111,1.1144,1.1156,1.1166,1.119,1.119,1.1214,1.1221,1.1248,1.1265,1.1256,1.1301,1.1301,1.1303,1.1289,1.129,1.129,1.1285,1.1266,0,0,0,0,0,1.1013,1.1034,1.1067,1.1088,1.11,1.1126,1.114,1.1153,1.1178,1.1188,1.1211,1.1235,1.126,1.1276,1.13,1.1328,1.1337,1.1339,1.134,1.134,1.1342,1.1359,1.1361,1.1341,1.1341,1.1341,0,0,1.1011,1.1035,1.1047,1.1085,1.1105,1.1127,1.1134,1.1157,1.1174,1.1192,1.1221,1.1238,1.1268,1.1296,1.131,1.1311,1.1349,1.1341,1.1341,1.1343,1.136,1.1362,1.1364,1.1342,1.1342,1.1342,0,0,1.1021,1.104,1.1061,1.1081,1.111,1.1128,1.1133,1.1166,1.1178,1.1207,1.1222,1.1243,1.1285,1.1305,1.1321,1.134,1.1349,1.1347,1.1349,1.1366,1.1367,1.1369,1.1376,1.1378,1.1349,1.1349,1.1349,0,1.1015,1.1049,1.107,1.1093,1.111,1.1127,1.1148,1.1167,1.1203,1.1215,1.1215,1.1269,1.1289,1.1324,1.1329,1.1341,1.1348,1.1343,1.1365,1.1367,1.1369,1.1376,1.1379,1.1349,1.1349,1.1349,1.1349,0,1.1042,1.1065,1.1078,1.1113,1.1131,1.1153,1.1178,1.1194,1.1206,1.1224,1.1254,1.128,1.1311,1.132,1.1331,1.1356,1.1356,1.1361,1.1361,1.137,1.1377,1.138,1.1348,1.1348,1.1348,1.1348,0,0,1.104,1.1087,1.1092,1.1108,1.1143,1.1162,1.1186,1.1215,1.1229,1.1254,1.1275,1.1311,1.1316,1.1334,1.1348,1.1362,1.1377,1.1365,1.1367,1.1367,1.1407,1.1403,1.1406,1.1384,1.1384,1.1385,1.1405,0,1.1054,1.1096,1.1116,1.115,1.1172,1.119,1.1211,1.1235,1.1252,1.1275,1.1295,1.132,1.1324,1.1335,1.135,1.1372,1.1385,1.1371,1.1404,1.1404,1.1395,1.141,1.1406,1.1423,1.1407,1.1408,1.1408,0,1.1076,1.1101,1.1137,1.117,1.118,1.1198,1.1228,1.1249,1.1277,1.1289,1.131,1.1325,1.1351,1.135,1.1387,1.1376,1.1391,1.1404,1.1405,1.1409,1.1407,1.1414,1.1429,1.1432,1.1413,1.1413,1.1412,0,1.1072,1.1115,1.1142,1.1155,1.1195,1.1208,1.1225,1.1253,1.127,1.1296,1.1308,1.1337,1.1353,1.1375,1.1397,1.1394,1.1432,1.1433,1.1444,1.1443,1.1451,1.145,1.1468,1.146,1.146,1.146,1.146,0,1.1085,1.1107,1.1141,1.1157,1.1182,1.1206,1.123,1.1248,1.1273,1.1295,1.1312,1.1332,1.136,1.1383,1.1401,1.143,1.1436,1.1447,1.1452,1.1446,1.1444,1.1456,1.1455,1.1461,1.1461,1.146,1.146,0,1.1085,1.1108,1.1139,1.1175,1.1184,1.1201,1.1232,1.1249,1.1268,1.1295,1.1303,1.1333,1.1362,1.1386,1.1424,1.1436,1.1465,1.1471,1.1456,1.1458,1.1468,1.1466,1.1494,1.1499,1.1487,1.1487,1.1487,0,1.1092,1.1108,1.1146,1.1161,1.1178,1.1203,1.1221,1.1245,1.1263,1.1297,1.1311,1.1341,1.1366,1.1412,1.1437,1.1467,1.1473,1.1481,1.1477,1.1471,1.1473,1.1472,1.1474,1.1481,1.1481,1.1481,1.1481,0,1.1102,1.1113,1.1138,1.1167,1.1188,1.1212,1.1237,1.1248,1.1278,1.1297,1.1327,1.1346,1.1386,1.1415,1.1448,1.1467,1.1479,1.1482,1.1486,1.148,1.147,1.1476,1.1456,1.1481,1.1481,1.1481,1.1481,1.1481,1.1105,1.1122,1.1151,1.1178,1.1199,1.1222,1.1241,1.1263,1.1288,1.1321,1.1334,1.1365,1.1395,1.1439,1.1458,1.1483,1.1485,1.1491,1.1492,1.1493,1.1492,1.1467,1.1489,1.1489,1.1489,1.1489,1.1489,0,1.1117,1.1137,1.1162,1.1196,1.1218,1.1227,1.1256,1.1274,1.13,1.1326,1.1351,1.1386,1.1416,1.1444,1.1475,1.149,1.1496,1.1497,1.1496,1.1501,1.1489,1.1482,1.1492,1.1492,1.1492,1.1492,1.1492,1.1492,1.1125,1.1153,1.1168,1.1208,1.1228,1.1258,1.1273,1.1295,1.1316,1.1354,1.1379,1.1397,1.1425,1.1458,1.1486,1.1494,1.1505,1.1504,1.1514,1.1502,1.1501,1.1501,1.1495,1.1507,1.1507,1.1524,1.1524,1.1524]},{"header":{"parameterUnit":"m.s-1","parameterCategory":1,"la1":30.2991,"la2":30.254,"lo1":-89.0895,"lo2":-89.0444,"dy":0.0017,"dx":0.0017,"nx":28,"ny":28,"refTime":"2025-01-22T03:00:00:Z","depth":0,"parameterNumber":3,"parameterNumberName":"V-component_of_WINDS"},"data":[0,0,0,0,0,0,0,0,0,0,0,0,0,0,0,0,0,0,0,0,0,0,0,0,0,0,0,0,0,0,0,0,0,0,0,0,0,0,0,0,0,0,0,0,0,0,0,0,0,0,0,0,0,0,0,0,0,0,-4.1886,-4.1887,0,-4.1931,-4.1932,-4.1932,-4.1903,-4.1901,-4.19,-4.1899,-4.1942,-4.1944,-4.1947,0,0,0,0,0,0,0,0,0,0,0,0,0,-4.1773,-4.1775,-4.1886,-4.1887,-4.1887,-4.1931,-4.1932,-4.1932,-4.1903,-4.1901,-4.19,-4.1898,-4.1941,-4.1944,-4.1947,0,0,0,0,0,0,0,0,0,0,0,0,0,-4.182,-4.1776,-4.1886,-4.1878,-4.1878,-4.1931,-4.1932,-4.1933,-4.1903,-4.1901,-4.1899,-4.1897,-4.194,-4.1944,-4.1947,-4.201,0,0,-4.1958,-4.196,0,0,0,0,0,0,0,0,-4.1818,-4.1824,-4.1879,-4.1879,-4.1879,-4.1909,-4.1908,-4.1959,-4.1904,-4.1894,-4.1899,-4.1896,-4.1933,-4.1937,-4.195,-4.2012,-4.2014,-4.1959,-4.1961,-4.1962,-4.1963,0,0,0,0,0,0,0,-4.1814,-4.1822,-4.1904,-4.188,-4.1879,-4.1872,-4.1876,-4.1917,-4.1924,-4.1894,-4.1892,-4.1898,-4.1932,-4.1946,-4.195,-4.2015,-4.1959,-4.1962,-4.1964,-4.1965,-4.2133,-4.2135,0,0,0,0,0,0,-4.1812,-4.182,-4.1903,-4.1905,-4.1843,-4.1875,-4.188,-4.1902,-4.1923,-4.1925,-4.19,-4.1897,-4.1941,-4.1946,-4.1952,-4.2028,-4.1962,-4.1966,-4.1968,-4.213,-4.2133,-4.2135,0,0,0,0,0,0,-4.181,-4.182,-4.1901,-4.1862,-4.1872,-4.1879,-4.1903,-4.1903,-4.1917,-4.1928,-4.1928,-4.1913,-4.194,-4.1947,-4.1996,-4.2029,-4.1967,-4.1971,-4.2128,-4.2131,-4.2134,-4.218,0,0,0,0,0,0,-4.1807,-4.1819,-4.1844,-4.1863,-4.1874,-4.1946,-4.1905,-4.1906,-4.1924,-4.192,-4.194,-4.1941,-4.1938,-4.1991,-4.2,-4.2033,-4.1974,-4.2125,-4.2129,-4.2133,-4.2176,-4.2184,-4.2192,0,0,0,0,0,-4.1803,-4.1854,-4.1845,-4.1855,-4.1905,-4.1947,-4.1954,-4.195,-4.1927,-4.1951,-4.1958,-4.1941,-4.2024,-4.1997,-4.2006,-4.204,-4.2123,-4.2128,-4.2133,-4.2172,-4.2183,-4.2192,0,0,0,0,0,0,-4.1836,-4.1856,-4.1847,-4.1905,-4.1925,-4.1942,-4.1973,-4.1961,-4.1987,-4.1983,-4.1976,-4.1981,-4.2033,-4.2041,-4.2011,-4.2103,-4.2069,-4.2077,-4.2096,-4.2106,-4.2114,-4.2111,-4.1977,0,0,0,0,0,-4.1851,-4.1885,-4.19,-4.195,-4.1961,-4.1965,-4.1984,-4.1979,-4.1999,-4.2007,-4.2017,-4.2036,-4.2067,-4.2087,-4.2115,-4.2176,-4.2181,-4.2205,-4.2213,-4.222,-4.2226,-4.226,-4.2271,-4.2152,-4.2152,-4.2152,0,0,-4.1881,-4.1896,-4.1917,-4.1957,-4.1972,-4.2007,-4.1972,-4.201,-4.2036,-4.2012,-4.2061,-4.2069,-4.209,-4.2146,-4.2171,-4.2154,-4.226,-4.2226,-4.2232,-4.2234,-4.2267,-4.2278,-4.2288,-4.2156,-4.2155,-4.2155,0,0,-4.1953,-4.1968,-4.2012,-4.2028,-4.2052,-4.2055,-4.2065,-4.2085,-4.209,-4.2138,-4.2122,-4.2151,-4.2204,-4.222,-4.2235,-4.2315,-4.23,-4.2324,-4.2367,-4.24,-4.241,-4.2418,-4.2447,-4.2458,-4.233,-4.233,-4.2331,0,-4.1987,-4.204,-4.2036,-4.2076,-4.2094,-4.2076,-4.2121,-4.2136,-4.2167,-4.218,-4.2161,-4.2227,-4.224,-4.23,-4.232,-4.2332,-4.2344,-4.2322,-4.2409,-4.2417,-4.2425,-4.2453,-4.2464,-4.2333,-4.2333,-4.2333,-4.2332,0,-4.2081,-4.2118,-4.215,-4.2183,-4.2204,-4.2246,-4.2249,-4.2271,-4.2265,-4.227,-4.232,-4.2335,-4.2367,-4.238,-4.2374,-4.244,-4.2429,-4.241,-4.2376,-4.2439,-4.2465,-4.2476,-4.2337,-4.2336,-4.2335,-4.2335,0,0,-4.2175,-4.2206,-4.2218,-4.2233,-4.2258,-4.2286,-4.2327,-4.236,-4.2379,-4.2401,-4.2436,-4.2481,-4.2464,-4.2481,-4.2477,-4.2506,-4.2569,-4.2483,-4.2483,-4.2499,-4.2644,-4.2659,-4.2671,-4.256,-4.2562,-4.2563,-4.2642,0,-4.225,-4.2323,-4.2322,-4.2389,-4.2424,-4.2407,-4.2443,-4.2462,-4.2468,-4.2497,-4.2503,-4.2536,-4.251,-4.2521,-4.2549,-4.2556,-4.2598,-4.255,-4.2592,-4.2593,-4.2588,-4.2685,-4.27,-4.2774,-4.2652,-4.2654,-4.2655,0,-4.2346,-4.2374,-4.2446,-4.2467,-4.2481,-4.2514,-4.2544,-4.2572,-4.2593,-4.2595,-4.2615,-4.2607,-4.2648,-4.2613,-4.267,-4.2638,-4.2654,-4.2661,-4.2663,-4.2667,-4.2628,-4.2692,-4.2797,-4.2808,-4.2671,-4.267,-4.2669,0,-4.2409,-4.2464,-4.2514,-4.2527,-4.2553,-4.2576,-4.2588,-4.2607,-4.2627,-4.2653,-4.2666,-4.2696,-4.2712,-4.2736,-4.2735,-4.271,-4.2793,-4.2758,-4.2796,-4.2797,-4.2815,-4.2814,-4.2925,-4.2825,-4.2825,-4.2825,-4.2824,0,-4.2493,-4.2538,-4.2543,-4.2574,-4.2624,-4.2621,-4.267,-4.2679,-4.2697,-4.2729,-4.2716,-4.2746,-4.2744,-4.2774,-4.2774,-4.2822,-4.2829,-4.2832,-4.2831,-4.2833,-4.2833,-4.2845,-4.284,-4.2828,-4.2827,-4.2826,-4.2826,0,-4.2571,-4.2577,-4.2631,-4.2651,-4.2658,-4.2693,-4.2711,-4.274,-4.2745,-4.2786,-4.2795,-4.2803,-4.2839,-4.284,-4.2881,-4.288,-4.2939,-4.2932,-4.2932,-4.2931,-4.297,-4.2966,-4.3093,-4.3109,-4.2998,-4.2999,-4.3,0,-4.2625,-4.2659,-4.2684,-4.2706,-4.2719,-4.2753,-4.2774,-4.2773,-4.2795,-4.2823,-4.2849,-4.2883,-4.2911,-4.2968,-4.2977,-4.3008,-4.3002,-4.3044,-4.3006,-4.3008,-4.3004,-4.3002,-4.3006,-4.3051,-4.3053,-4.3054,-4.3055,0,-4.2719,-4.2721,-4.2752,-4.2784,-4.281,-4.2835,-4.2858,-4.2876,-4.2878,-4.2903,-4.294,-4.2962,-4.3004,-4.3038,-4.3069,-4.308,-4.3068,-4.3066,-4.3077,-4.308,-4.3079,-4.3081,-4.2953,-4.3064,-4.3063,-4.3062,-4.3061,-4.3061,-4.2787,-4.2818,-4.284,-4.2876,-4.2894,-4.2916,-4.2945,-4.2955,-4.2986,-4.3021,-4.3018,-4.3059,-4.308,-4.312,-4.3134,-4.3165,-4.3151,-4.3166,-4.317,-4.3174,-4.3179,-4.3074,-4.3171,-4.317,-4.317,-4.317,-4.317,0,-4.2882,-4.2896,-4.2929,-4.2963,-4.2991,-4.2978,-4.3004,-4.3028,-4.3065,-4.3086,-4.3114,-4.3156,-4.319,-4.3202,-4.3235,-4.3258,-4.3253,-4.3266,-4.3265,-4.3268,-4.3189,-4.3177,-4.327,-4.327,-4.327,-4.327,-4.327,-4.327,-4.2934,-4.2985,-4.299,-4.3049,-4.3063,-4.3104,-4.312,-4.3141,-4.3158,-4.3207,-4.3235,-4.3243,-4.3261,-4.3295,-4.3325,-4.3328,-4.334,-4.3356,-4.3357,-4.3283,-4.3273,-4.3264,-4.3252,-4.3359,-4.3359,-4.3433,-4.3433,-4.3434]}]]